Weather History for Olney-Noble, IL

Change the Weather History Date:

Saturday, March 9, 2013

  Actual Average (KEVV) Record (KEVV)
Temperature  
Mean Temperature 48 °F 44 °F  
Max Temperature 59 °F 54 °F 80 °F (1925)
Min Temperature 37 °F 33 °F 10 °F (1932)
Degree Days  
Heating Degree Days 17 21  
Month to date heating degree days 204  
Since 1 July heating degree days 3778  
Cooling Degree Days 0 0  
Month to date cooling degree days 0  
Year to date cooling degree days 0  
Moisture  
Dew Point 35 °F    
Average Humidity 61    
Maximum Humidity 75    
Minimum Humidity 48    
Precipitation  
Precipitation 0.00 in 0.13 in 4.25 in (1964)
Month to date precipitation 1.10  
Year to date precipitation 7.37  
Snow  
Snow 0.00 in 0.10 in 6.80 in (1994)
Month to date snowfall 0.5  
Since 1 July snowfall 11.2  
Snow Depth -    
Sea Level Pressure  
Sea Level Pressure 30.08 in    
Wind  
Wind Speed 9 mph (SE)    
Max Wind Speed 17 mph    
Max Gust Speed 22 mph    
Visibility 10 miles    
Events      
T = Trace of Precipitation, MM = Missing Value Source: NWS Daily Summary

Daily Weather History Graph

Daily Weather History Graph

Search for Another Location

Airport:

Trip Planner

Search our weather history database for the weather conditions in past years. The results will help you decide how hot, cold, wet, or windy it might be!

Date:

Astronomy

Mar. 09, 2013 Rise Set
Actual Time 6:12 AM CST 5:54 PM CST
Civil Twilight 5:46 AM CST 6:20 PM CST
Nautical Twilight 5:15 AM CST 6:51 PM CST
Astronomical Twilight 4:44 AM CST 7:22 PM CST
Moon 4:35 AM CST (3/9) 3:56 PM CST (3/9)
Length of Visible Light 12h 34m
Length of Day
11h 41m
Waning Crescent, 5% of the Moon is Illuminated
Mar 9
Waning Crescent
Mar 11
New
Mar 19
First Quarter
Mar 27
Full
Apr 2
Last Quarter

Hourly Weather History & Observations

Time (CST) Temp. Windchill Dew Point Humidity Pressure Visibility Wind Dir Wind Speed Gust Speed Precip Events Conditions
12:15 AM 42.8 °F 40.1 °F 32.0 °F 66% 30.27 in 10.0 mi ESE 4.6 mph - N/A   Clear
12:35 AM 42.8 °F 38.6 °F 30.2 °F 61% 30.26 in 10.0 mi ESE 6.9 mph - N/A   Clear
12:55 AM 41.0 °F 36.4 °F 30.2 °F 65% 30.25 in 10.0 mi ESE 6.9 mph - N/A   Clear
1:15 AM 41.0 °F 35.2 °F 30.2 °F 65% 30.24 in 10.0 mi East 9.2 mph - N/A   Clear
1:35 AM 41.0 °F 35.8 °F 30.2 °F 65% 30.24 in 10.0 mi SE 8.1 mph - N/A   Clear
1:55 AM 39.2 °F 35.9 °F 30.2 °F 70% 30.24 in 10.0 mi SE 4.6 mph - N/A   Clear
2:35 AM 39.2 °F 35.0 °F 32.0 °F 75% 30.22 in 10.0 mi ESE 5.8 mph - N/A   Clear
2:55 AM 39.2 °F 33.6 °F 32.0 °F 75% 30.21 in 10.0 mi East 8.1 mph - N/A   Clear
3:15 AM 39.2 °F 35.0 °F 32.0 °F 75% 30.21 in 10.0 mi SE 5.8 mph 9.2 mph N/A   Clear
3:35 AM 39.2 °F 35.0 °F 32.0 °F 75% 30.21 in 10.0 mi SE 5.8 mph - N/A   Clear
3:55 AM 39.2 °F 35.9 °F 30.2 °F 70% 30.21 in 10.0 mi ESE 4.6 mph - N/A   Clear
4:15 AM 37.4 °F 32.1 °F 30.2 °F 75% 30.21 in 10.0 mi ESE 6.9 mph - N/A   Clear
4:35 AM 37.4 °F 32.8 °F 30.2 °F 75% 30.22 in 10.0 mi ESE 5.8 mph - N/A   Clear
4:55 AM 37.4 °F 32.1 °F 30.2 °F 75% 30.22 in 10.0 mi ESE 6.9 mph - N/A   Clear
5:15 AM 37.4 °F 32.8 °F 30.2 °F 75% 30.22 in 10.0 mi ESE 5.8 mph - N/A   Clear
5:35 AM 39.2 °F 35.0 °F 30.2 °F 70% 30.22 in 10.0 mi SE 5.8 mph - N/A   Clear
5:55 AM 39.2 °F 33.6 °F 32.0 °F 75% 30.20 in 10.0 mi East 8.1 mph - N/A   Clear
6:15 AM 39.2 °F 33.0 °F 32.0 °F 75% 30.20 in 10.0 mi East 9.2 mph - N/A   Clear
6:35 AM 39.2 °F 33.6 °F 32.0 °F 75% 30.20 in 10.0 mi ESE 8.1 mph - N/A   Clear
6:55 AM 39.2 °F 33.6 °F 32.0 °F 75% 30.19 in 10.0 mi ESE 8.1 mph - N/A   Clear
7:15 AM 39.2 °F 35.0 °F 32.0 °F 75% 30.20 in 10.0 mi ESE 5.8 mph - N/A   Clear
7:35 AM 41.0 °F 37.1 °F 32.0 °F 70% 30.21 in 10.0 mi ESE 5.8 mph - N/A   Clear
7:55 AM 42.8 °F 38.6 °F 32.0 °F 66% 30.21 in 10.0 mi SE 6.9 mph - N/A   Clear
8:15 AM 42.8 °F 38.0 °F 32.0 °F 66% 30.20 in 10.0 mi ESE 8.1 mph - N/A   Clear
8:35 AM 42.8 °F 38.6 °F 33.8 °F 70% 30.20 in 10.0 mi SE 6.9 mph - N/A   Clear
8:55 AM 44.6 °F 39.2 °F 33.8 °F 66% 30.20 in 10.0 mi SSE 10.4 mph - N/A   Clear
9:15 AM 46.4 °F 42.9 °F 35.6 °F 66% 30.19 in 10.0 mi SE 6.9 mph - N/A   Clear
9:35 AM 46.4 °F 41.9 °F 33.8 °F 62% 30.17 in 10.0 mi SE 9.2 mph - N/A   Clear
9:55 AM 46.4 °F 42.4 °F 35.6 °F 66% 30.17 in 10.0 mi SE 8.1 mph - N/A   Scattered Clouds
10:15 AM 48.2 °F - 35.6 °F 62% 30.16 in 7.0 mi SE 10.4 mph - N/A   Scattered Clouds
10:35 AM 50.0 °F - 37.4 °F 62% 30.17 in 10.0 mi SSE 6.9 mph - N/A   Mostly Cloudy
10:55 AM 50.0 °F - 37.4 °F 62% 30.16 in 10.0 mi SSE 9.2 mph - N/A   Overcast
11:15 AM 50.0 °F - 35.6 °F 58% 30.15 in 10.0 mi SE 8.1 mph - N/A   Overcast
11:35 AM 50.0 °F - 37.4 °F 62% 30.14 in 10.0 mi SE 10.4 mph - N/A   Overcast
11:55 AM 50.0 °F - 37.4 °F 62% 30.12 in 10.0 mi SE 9.2 mph - N/A   Overcast
12:15 PM 51.8 °F - 37.4 °F 58% 30.10 in 10.0 mi SE 12.7 mph 17.3 mph N/A   Overcast
12:35 PM 51.8 °F - 37.4 °F 58% 30.09 in 10.0 mi ESE 10.4 mph - N/A   Mostly Cloudy
12:55 PM 55.4 °F - 39.2 °F 54% 30.08 in 10.0 mi ESE 10.4 mph - N/A   Scattered Clouds
1:15 PM 55.4 °F - 39.2 °F 54% 30.07 in 10.0 mi SE 9.2 mph - N/A   Clear
1:35 PM 57.2 °F - 39.2 °F 51% 30.05 in 10.0 mi SE 12.7 mph - N/A   Scattered Clouds
1:55 PM 57.2 °F - 37.4 °F 48% 30.04 in 10.0 mi SE 13.8 mph 17.3 mph N/A   Scattered Clouds
2:15 PM 55.4 °F - 37.4 °F 51% 30.02 in 10.0 mi SSE 15.0 mph - N/A   Scattered Clouds
2:35 PM 57.2 °F - 39.2 °F 51% 30.02 in 10.0 mi SE 15.0 mph 18.4 mph N/A   Clear
2:55 PM 57.2 °F - 39.2 °F 51% 30.01 in 10.0 mi SE 11.5 mph 15.0 mph N/A   Clear
3:15 PM 57.2 °F - 39.2 °F 51% 30.00 in 10.0 mi SE 15.0 mph 18.4 mph N/A   Clear
3:35 PM 57.2 °F - 39.2 °F 51% 30.00 in 10.0 mi SE 15.0 mph - N/A   Clear
3:55 PM 57.2 °F - 39.2 °F 51% 29.99 in 10.0 mi SSE 16.1 mph 21.9 mph N/A   Clear
4:15 PM 59.0 °F - 39.2 °F 48% 29.98 in 10.0 mi SE 10.4 mph - N/A   Clear
4:35 PM 57.2 °F - 39.2 °F 51% 29.98 in 10.0 mi SE 11.5 mph 19.6 mph N/A   Clear
4:55 PM 55.4 °F - 39.2 °F 54% 29.98 in 10.0 mi SE 12.7 mph 18.4 mph N/A   Clear
5:15 PM 55.4 °F - 37.4 °F 51% 29.97 in 10.0 mi SE 13.8 mph 18.4 mph N/A   Clear
5:35 PM 55.4 °F - 39.2 °F 54% 29.96 in 10.0 mi SE 11.5 mph - N/A   Clear
5:55 PM 55.4 °F - 39.2 °F 54% 29.96 in 10.0 mi SE 15.0 mph 19.6 mph N/A   Scattered Clouds
6:15 PM 55.4 °F - 37.4 °F 51% 29.95 in 10.0 mi SE 15.0 mph 19.6 mph N/A   Mostly Cloudy
6:35 PM 53.6 °F - 37.4 °F 54% 29.96 in 10.0 mi SE 13.8 mph - N/A   Mostly Cloudy
6:55 PM 53.6 °F - 37.4 °F 54% 29.96 in 10.0 mi SE 15.0 mph - N/A   Clear
7:15 PM 53.6 °F - 37.4 °F 54% 29.95 in 10.0 mi SE 12.7 mph - N/A   Clear
7:35 PM 53.6 °F - 37.4 °F 54% 29.94 in 10.0 mi SE 15.0 mph - N/A   Clear
7:55 PM 53.6 °F - 37.4 °F 54% 29.93 in 10.0 mi SSE 17.3 mph 20.7 mph N/A   Clear
8:15 PM 53.6 °F - 37.4 °F 54% 29.92 in 10.0 mi SE 15.0 mph - N/A   Clear
8:35 PM 53.6 °F - 37.4 °F 54% 29.92 in 10.0 mi SE 13.8 mph 20.7 mph N/A   Clear
8:55 PM 53.6 °F - 37.4 °F 54% 29.92 in 10.0 mi SSE 13.8 mph - N/A   Clear
9:15 PM 53.6 °F - 37.4 °F 54% 29.92 in 10.0 mi SSE 13.8 mph 19.6 mph N/A   Clear
9:35 PM 53.6 °F - 37.4 °F 54% 29.92 in 10.0 mi SSE 12.7 mph 19.6 mph N/A   Clear
9:55 PM 53.6 °F - 37.4 °F 54% 29.92 in 10.0 mi SSE 12.7 mph - N/A   Clear
10:15 PM 53.6 °F - 37.4 °F 54% 29.92 in 10.0 mi SSE 12.7 mph - N/A   Clear
10:35 PM 53.6 °F - 37.4 °F 54% 29.91 in 10.0 mi SSE 12.7 mph - N/A   Clear
10:55 PM 53.6 °F - 37.4 °F 54% 29.90 in 10.0 mi SSE 11.5 mph - N/A   Scattered Clouds
11:15 PM 53.6 °F - 37.4 °F 54% 29.90 in 10.0 mi SSE 11.5 mph - N/A   Scattered Clouds
11:35 PM 55.4 °F - 37.4 °F 51% 29.90 in 10.0 mi SSE 10.4 mph - N/A   Clear
11:55 PM 55.4 °F - 37.4 °F 51% 29.89 in 10.0 mi South 10.4 mph - N/A   Clear